Time,TemperatureF,DewpointF,PressureIn,WindDirection,WindDirectionDegrees,WindSpeedMPH,WindSpeedGustMPH,Humidity,HourlyPrecipIn,Conditions,Clouds,dailyrainin,SoftwareType,DateUTC
2013-05-11 00:00:00,64.9,64.0,30.01,WSW,245,0.0,4.0,97,0.01,,---,0.00,VWS V14.01,2013-05-11 05:00:00,
2013-05-11 00:01:00,64.9,64.0,30.01,WSW,245,0.0,0.0,97,0.01,,---,0.00,VWS V14.01,2013-05-11 05:01:00,
2013-05-11 00:06:00,64.9,64.0,30.01,WSW,245,0.0,0.0,97,0.01,,---,0.00,VWS V14.01,2013-05-11 05:06:00,
2013-05-11 00:11:00,64.9,64.0,30.01,WSW,248,0.0,1.0,97,0.01,,---,0.00,VWS V14.01,2013-05-11 05:11:00,
2013-05-11 00:16:00,64.9,64.0,30.01,West,264,0.0,1.0,97,0.01,,---,0.00,VWS V14.01,2013-05-11 05:16:00,
2013-05-11 00:21:00,65.0,64.1,30.01,NNW,334,0.0,1.0,97,0.01,,---,0.00,VWS V14.01,2013-05-11 05:21:00,
2013-05-11 00:26:00,64.9,64.0,30.01,NNW,335,0.0,1.0,97,0.01,,---,0.00,VWS V14.01,2013-05-11 05:26:00,
2013-05-11 00:30:00,65.0,64.1,30.01,NNW,335,0.0,1.0,97,0.01,,---,0.00,VWS V14.01,2013-05-11 05:30:00,
2013-05-11 00:31:00,65.0,64.1,30.01,NNW,334,0.0,0.0,97,0.01,,---,0.00,VWS V14.01,2013-05-11 05:31:00,
2013-05-11 00:36:00,64.9,64.0,30.02,NNW,335,0.0,0.0,97,0.01,,---,0.00,VWS V14.01,2013-05-11 05:36:00,
2013-05-11 00:41:00,65.0,64.1,30.02,NNW,335,0.0,0.0,97,0.01,,---,0.00,VWS V14.01,2013-05-11 05:41:00,
2013-05-11 00:46:00,64.9,64.0,30.02,NNW,334,0.0,1.0,97,0.01,,---,0.00,VWS V14.01,2013-05-11 05:46:00,
2013-05-11 00:51:00,64.9,64.0,30.02,NNW,335,0.0,1.0,97,0.01,,---,0.00,VWS V14.01,2013-05-11 05:51:00,
2013-05-11 00:56:00,64.9,64.0,30.02,NNW,335,0.0,1.0,97,0.01,,---,0.00,VWS V14.01,2013-05-11 05:56:00,
2013-05-11 01:00:00,64.9,64.0,30.02,NNW,335,0.0,1.0,97,0.01,,---,0.00,VWS V14.01,2013-05-11 06:00:00,
2013-05-11 01:01:00,64.9,64.0,30.02,NNW,335,0.0,0.0,97,0.00,,---,0.00,VWS V14.01,2013-05-11 06:01:00,
2013-05-11 01:06:00,64.8,63.9,30.01,NNW,334,0.0,0.0,97,0.00,,---,0.00,VWS V14.01,2013-05-11 06:06:00,
2013-05-11 01:11:00,64.7,63.8,30.01,NNW,334,0.0,0.0,97,0.00,,---,0.00,VWS V14.01,2013-05-11 06:11:00,
2013-05-11 01:16:00,64.6,63.7,30.01,NNW,334,0.0,0.0,97,0.00,,---,0.00,VWS V14.01,2013-05-11 06:16:00,
2013-05-11 01:21:00,64.3,63.1,30.01,NNW,335,0.0,0.0,96,0.00,,---,0.00,VWS V14.01,2013-05-11 06:21:00,
2013-05-11 01:26:00,64.1,62.9,30.01,NNW,335,0.0,0.0,96,0.00,,---,0.00,VWS V14.01,2013-05-11 06:26:00,
2013-05-11 01:30:00,64.0,63.1,30.01,NNW,335,0.0,0.0,97,0.00,,---,0.00,VWS V14.01,2013-05-11 06:30:00,
2013-05-11 01:31:00,64.0,63.1,30.01,NNW,335,0.0,0.0,97,0.00,,---,0.00,VWS V14.01,2013-05-11 06:31:00,
2013-05-11 01:36:00,63.8,62.9,30.00,NNW,338,0.0,0.0,97,0.00,,---,0.00,VWS V14.01,2013-05-11 06:36:00,
2013-05-11 01:41:00,63.7,62.8,30.01,NNW,336,0.0,0.0,97,0.00,,---,0.00,VWS V14.01,2013-05-11 06:41:00,
2013-05-11 01:46:00,63.6,62.7,30.00,NNW,336,0.0,0.0,97,0.00,,---,0.00,VWS V14.01,2013-05-11 06:46:00,
2013-05-11 01:51:00,63.4,62.5,30.00,NNW,337,0.0,0.0,97,0.00,,---,0.00,VWS V14.01,2013-05-11 06:51:00,
2013-05-11 01:56:00,63.2,62.3,30.00,NNW,337,0.0,0.0,97,0.00,,---,0.00,VWS V14.01,2013-05-11 06:56:00,
2013-05-11 02:00:00,63.0,62.1,30.00,NNW,338,0.0,0.0,97,0.00,,---,0.00,VWS V14.01,2013-05-11 07:00:00,
2013-05-11 02:01:00,63.0,62.1,30.00,NNW,338,0.0,0.0,97,0.00,,---,0.00,VWS V14.01,2013-05-11 07:01:00,
2013-05-11 02:06:00,62.8,61.9,29.99,NNW,336,0.0,0.0,97,0.00,,---,0.00,VWS V14.01,2013-05-11 07:06:00,
2013-05-11 02:11:00,62.6,61.7,29.99,NNW,337,0.0,0.0,97,0.00,,---,0.00,VWS V14.01,2013-05-11 07:11:00,
2013-05-11 02:16:00,62.4,61.5,29.99,NNW,338,0.0,0.0,97,0.00,,---,0.00,VWS V14.01,2013-05-11 07:16:00,
2013-05-11 02:21:00,62.1,61.2,29.99,NNW,336,0.0,0.0,97,0.00,,---,0.00,VWS V14.01,2013-05-11 07:21:00,
2013-05-11 02:26:00,62.2,61.3,29.99,NNW,338,0.0,0.0,97,0.00,,---,0.00,VWS V14.01,2013-05-11 07:26:00,
2013-05-11 02:30:00,62.2,61.3,29.99,NNW,338,0.0,0.0,97,0.00,,---,0.00,VWS V14.01,2013-05-11 07:30:00,
2013-05-11 02:31:00,62.2,61.3,29.99,NNW,336,0.0,0.0,97,0.00,,---,0.00,VWS V14.01,2013-05-11 07:31:00,
2013-05-11 02:36:00,62.1,61.2,29.99,NNW,337,0.0,0.0,97,0.00,,---,0.00,VWS V14.01,2013-05-11 07:36:00,
2013-05-11 02:41:00,62.1,61.2,29.99,NNW,336,0.0,0.0,97,0.00,,---,0.00,VWS V14.01,2013-05-11 07:41:00,
2013-05-11 02:46:00,62.0,61.1,29.99,NNW,336,0.0,0.0,97,0.00,,---,0.00,VWS V14.01,2013-05-11 07:46:00,
2013-05-11 02:51:00,61.8,60.9,29.99,NNW,336,0.0,0.0,97,0.00,,---,0.00,VWS V14.01,2013-05-11 07:51:00,
2013-05-11 02:56:00,61.7,60.8,29.99,NNW,336,0.0,0.0,97,0.00,,---,0.00,VWS V14.01,2013-05-11 07:56:00,
2013-05-11 03:00:00,61.5,60.6,29.99,NNW,337,0.0,0.0,97,0.00,,---,0.00,VWS V14.01,2013-05-11 08:00:00,
2013-05-11 03:01:00,61.5,60.6,29.99,NNW,336,0.0,0.0,97,0.00,,---,0.00,VWS V14.01,2013-05-11 08:01:00,
2013-05-11 03:06:00,61.3,60.4,29.99,NNW,336,0.0,0.0,97,0.00,,---,0.00,VWS V14.01,2013-05-11 08:06:00,
2013-05-11 03:11:00,61.2,60.3,29.98,NNW,337,0.0,0.0,97,0.00,,---,0.00,VWS V14.01,2013-05-11 08:11:00,
2013-05-11 03:16:00,61.2,60.3,29.98,NNW,338,0.0,0.0,97,0.00,,---,0.00,VWS V14.01,2013-05-11 08:16:00,
2013-05-11 03:21:00,61.1,60.2,29.98,NNW,336,0.0,0.0,97,0.00,,---,0.00,VWS V14.01,2013-05-11 08:21:00,
2013-05-11 03:26:00,61.1,60.2,29.99,NNW,336,0.0,0.0,97,0.00,,---,0.00,VWS V14.01,2013-05-11 08:26:00,
2013-05-11 03:30:00,61.1,60.5,29.99,NNW,337,0.0,0.0,98,0.00,,---,0.00,VWS V14.01,2013-05-11 08:30:00,
2013-05-11 03:31:00,61.1,60.5,29.99,NNW,336,0.0,0.0,98,0.00,,---,0.00,VWS V14.01,2013-05-11 08:31:00,
2013-05-11 03:36:00,61.1,60.5,29.98,NNW,336,0.0,0.0,98,0.00,,---,0.00,VWS V14.01,2013-05-11 08:36:00,
2013-05-11 03:41:00,61.0,60.4,29.99,NNW,336,0.0,0.0,98,0.00,,---,0.00,VWS V14.01,2013-05-11 08:41:00,
2013-05-11 03:46:00,60.9,60.3,29.99,NNW,336,0.0,0.0,98,0.00,,---,0.00,VWS V14.01,2013-05-11 08:46:00,
2013-05-11 03:51:00,60.9,60.3,29.98,NNW,336,0.0,0.0,98,0.00,,---,0.00,VWS V14.01,2013-05-11 08:51:00,
2013-05-11 03:56:00,60.9,60.3,29.98,NNW,336,0.0,0.0,98,0.00,,---,0.00,VWS V14.01,2013-05-11 08:56:00,
2013-05-11 04:00:00,61.0,60.4,29.98,NNW,336,0.0,0.0,98,0.00,,---,0.00,VWS V14.01,2013-05-11 09:00:00,
2013-05-11 04:01:00,61.0,60.4,29.98,NNW,336,0.0,0.0,98,0.00,,---,0.00,VWS V14.01,2013-05-11 09:01:00,
2013-05-11 04:06:00,61.0,60.4,29.97,NNW,337,0.0,0.0,98,0.00,,---,0.00,VWS V14.01,2013-05-11 09:06:00,
2013-05-11 04:11:00,61.1,60.5,29.97,NNW,337,0.0,0.0,98,0.00,,---,0.00,VWS V14.01,2013-05-11 09:11:00,
2013-05-11 04:16:00,61.3,60.7,29.97,NNW,337,0.0,0.0,98,0.00,,---,0.00,VWS V14.01,2013-05-11 09:16:00,
2013-05-11 04:21:00,61.3,60.7,29.97,NNW,337,0.0,0.0,98,0.00,,---,0.00,VWS V14.01,2013-05-11 09:21:00,
2013-05-11 04:26:00,61.4,60.8,29.97,NNW,337,0.0,0.0,98,0.00,,---,0.00,VWS V14.01,2013-05-11 09:26:00,
2013-05-11 04:30:00,61.4,60.8,29.97,NNW,336,0.0,0.0,98,0.00,,---,0.00,VWS V14.01,2013-05-11 09:30:00,
2013-05-11 04:31:00,61.5,60.9,29.97,NNW,338,0.0,0.0,98,0.00,,---,0.00,VWS V14.01,2013-05-11 09:31:00,
2013-05-11 04:36:00,61.6,61.0,29.97,NNW,337,0.0,0.0,98,0.00,,---,0.00,VWS V14.01,2013-05-11 09:36:00,
2013-05-11 04:41:00,61.7,61.1,29.97,NNW,337,0.0,0.0,98,0.00,,---,0.00,VWS V14.01,2013-05-11 09:41:00,
2013-05-11 04:46:00,61.7,61.1,29.97,NNW,337,0.0,0.0,98,0.00,,---,0.00,VWS V14.01,2013-05-11 09:46:00,
2013-05-11 04:51:00,61.7,61.1,29.98,NNW,337,0.0,0.0,98,0.00,,---,0.00,VWS V14.01,2013-05-11 09:51:00,
2013-05-11 04:56:00,61.8,61.2,29.98,NNW,337,0.0,0.0,98,0.00,,---,0.00,VWS V14.01,2013-05-11 09:56:00,
2013-05-11 05:00:00,61.9,61.3,29.97,NNW,337,0.0,0.0,98,0.00,,---,0.00,VWS V14.01,2013-05-11 10:00:00,
2013-05-11 05:01:00,62.0,61.4,29.97,NNW,337,0.0,0.0,98,0.00,,---,0.00,VWS V14.01,2013-05-11 10:01:00,
2013-05-11 05:06:00,62.2,61.6,29.97,NNW,336,0.0,0.0,98,0.00,,---,0.00,VWS V14.01,2013-05-11 10:06:00,
2013-05-11 05:11:00,62.4,61.8,29.96,NNW,338,0.0,0.0,98,0.00,,---,0.00,VWS V14.01,2013-05-11 10:11:00,
2013-05-11 05:16:00,62.4,61.8,29.96,NNW,337,0.0,0.0,98,0.00,,---,0.00,VWS V14.01,2013-05-11 10:16:00,
2013-05-11 05:21:00,62.3,61.7,29.96,NNW,338,0.0,0.0,98,0.00,,---,0.00,VWS V14.01,2013-05-11 10:21:00,
2013-05-11 05:26:00,62.2,61.6,29.96,NNW,337,0.0,0.0,98,0.00,,---,0.00,VWS V14.01,2013-05-11 10:26:00,
2013-05-11 05:30:00,62.1,61.5,29.96,NNW,337,0.0,0.0,98,0.00,,---,0.00,VWS V14.01,2013-05-11 10:30:00,
2013-05-11 05:31:00,62.0,61.4,29.96,NNW,338,0.0,0.0,98,0.00,,---,0.00,VWS V14.01,2013-05-11 10:31:00,
2013-05-11 05:36:00,61.9,61.3,29.97,NNW,337,0.0,0.0,98,0.00,,---,0.00,VWS V14.01,2013-05-11 10:36:00,
2013-05-11 05:41:00,61.7,61.1,29.97,NNW,336,0.0,0.0,98,0.00,,---,0.00,VWS V14.01,2013-05-11 10:41:00,
2013-05-11 05:46:00,61.5,60.9,29.97,NNW,337,0.0,0.0,98,0.00,,---,0.00,VWS V14.01,2013-05-11 10:46:00,
2013-05-11 05:51:00,61.5,60.9,29.96,NNW,337,0.0,0.0,98,0.00,,---,0.00,VWS V14.01,2013-05-11 10:51:00,
2013-05-11 05:56:00,61.6,61.0,29.96,NNW,337,0.0,0.0,98,0.00,,---,0.00,VWS V14.01,2013-05-11 10:56:00,
2013-05-11 06:00:00,61.6,61.0,29.97,NNW,336,0.0,0.0,98,0.00,,---,0.00,VWS V14.01,2013-05-11 11:00:00,
2013-05-11 06:01:00,61.5,60.9,29.97,NNW,337,0.0,0.0,98,0.00,,---,0.00,VWS V14.01,2013-05-11 11:01:00,
2013-05-11 06:06:00,61.6,61.0,29.97,NNW,336,0.0,0.0,98,0.00,,---,0.00,VWS V14.01,2013-05-11 11:06:00,
2013-05-11 06:11:00,61.6,61.0,29.97,NNW,337,0.0,0.0,98,0.00,,---,0.00,VWS V14.01,2013-05-11 11:11:00,
2013-05-11 06:16:00,61.6,61.0,29.98,NNW,336,0.0,0.0,98,0.00,,---,0.00,VWS V14.01,2013-05-11 11:16:00,
2013-05-11 06:21:00,61.6,61.0,29.98,NNW,337,0.0,0.0,98,0.00,,---,0.00,VWS V14.01,2013-05-11 11:21:00,
2013-05-11 06:26:00,61.6,61.0,29.98,NNW,337,0.0,0.0,98,0.00,,---,0.00,VWS V14.01,2013-05-11 11:26:00,
2013-05-11 06:30:00,61.6,61.0,29.98,NNW,338,0.0,0.0,98,0.00,,---,0.00,VWS V14.01,2013-05-11 11:30:00,
2013-05-11 06:31:00,61.6,61.0,29.98,NNW,337,0.0,0.0,98,0.00,,---,0.00,VWS V14.01,2013-05-11 11:31:00,
2013-05-11 06:36:00,61.8,61.2,29.98,NNW,337,0.0,0.0,98,0.00,,---,0.00,VWS V14.01,2013-05-11 11:36:00,
2013-05-11 06:41:00,61.8,61.2,29.99,NNW,338,0.0,0.0,98,0.00,,---,0.00,VWS V14.01,2013-05-11 11:41:00,
2013-05-11 06:46:00,61.9,61.3,29.99,NNW,337,0.0,0.0,98,0.00,,---,0.00,VWS V14.01,2013-05-11 11:46:00,
2013-05-11 06:51:00,62.0,61.4,29.99,NNW,337,0.0,0.0,98,0.00,,---,0.00,VWS V14.01,2013-05-11 11:51:00,
2013-05-11 06:56:00,62.1,61.5,29.99,NNW,337,0.0,0.0,98,0.00,,---,0.00,VWS V14.01,2013-05-11 11:56:00,
2013-05-11 07:00:00,61.6,61.0,29.97,NNW,336,0.0,0.0,98,0.00,,---,0.00,VWS V14.01,2013-05-11 12:00:00,
2013-05-11 07:03:00,62.2,61.6,30.00,NNW,337,0.0,0.0,98,0.00,,---,0.00,VWS V14.01,2013-05-11 12:03:00,
2013-05-11 07:08:00,62.4,61.8,30.00,NNW,338,0.0,0.0,98,0.00,,---,0.00,VWS V14.01,2013-05-11 12:08:00,
2013-05-11 07:13:00,62.5,61.9,30.00,NNW,337,0.0,0.0,98,0.00,,---,0.00,VWS V14.01,2013-05-11 12:13:00,
2013-05-11 07:18:00,62.9,62.3,30.00,NNW,338,0.0,0.0,98,0.00,,---,0.00,VWS V14.01,2013-05-11 12:18:00,
2013-05-11 07:23:00,63.0,62.7,30.00,NNW,338,0.0,0.0,99,0.00,,---,0.00,VWS V14.01,2013-05-11 12:23:00,
2013-05-11 07:28:00,63.2,62.9,30.01,NNW,337,0.0,0.0,99,0.00,,---,0.00,VWS V14.01,2013-05-11 12:28:00,
2013-05-11 07:30:00,63.2,62.9,30.01,NNW,337,0.0,0.0,99,0.00,,---,0.00,VWS V14.01,2013-05-11 12:30:00,
2013-05-11 07:33:00,63.4,63.1,30.01,NNW,338,0.0,0.0,99,0.00,,---,0.00,VWS V14.01,2013-05-11 12:33:00,
2013-05-11 07:38:00,63.5,63.2,30.02,NNW,337,0.0,0.0,99,0.01,,---,0.01,VWS V14.01,2013-05-11 12:38:00,
2013-05-11 07:43:00,63.7,63.4,30.02,NNW,337,0.0,0.0,99,0.01,,---,0.01,VWS V14.01,2013-05-11 12:43:00,
2013-05-11 07:48:00,63.8,63.5,30.03,NNW,337,0.0,0.0,99,0.01,,---,0.01,VWS V14.01,2013-05-11 12:48:00,
2013-05-11 07:53:00,63.9,63.6,30.03,NNW,338,0.0,0.0,99,0.01,,---,0.01,VWS V14.01,2013-05-11 12:53:00,
2013-05-11 07:58:00,63.9,63.3,30.05,NNW,338,0.0,0.0,98,0.02,,---,0.02,VWS V14.01,2013-05-11 12:58:00,
2013-05-11 08:00:00,63.9,63.3,30.05,NNW,338,0.0,1.0,98,0.02,,---,0.02,VWS V14.01,2013-05-11 13:00:00,
2013-05-11 08:03:00,63.9,63.3,30.06,ESE,114,1.0,1.0,98,0.03,,---,0.03,VWS V14.01,2013-05-11 13:03:00,
2013-05-11 08:08:00,63.8,63.2,30.05,ESE,110,0.0,2.0,98,0.03,,---,0.03,VWS V14.01,2013-05-11 13:08:00,
2013-05-11 08:13:00,63.8,63.2,30.04,ENE,75,0.0,2.0,98,0.05,,---,0.05,VWS V14.01,2013-05-11 13:13:00,
2013-05-11 08:18:00,63.8,63.2,30.04,ENE,75,0.0,2.0,98,0.07,,---,0.07,VWS V14.01,2013-05-11 13:18:00,
2013-05-11 08:23:00,63.8,63.2,30.04,ENE,75,0.0,2.0,98,0.08,,---,0.08,VWS V14.01,2013-05-11 13:23:00,
2013-05-11 08:28:00,63.8,63.2,30.04,ENE,75,0.0,2.0,98,0.09,,---,0.09,VWS V14.01,2013-05-11 13:28:00,
2013-05-11 08:30:00,63.8,63.2,30.04,ENE,75,0.0,2.0,98,0.09,,---,0.09,VWS V14.01,2013-05-11 13:30:00,
2013-05-11 08:33:00,63.8,63.2,30.04,ENE,75,0.0,0.0,98,0.10,,---,0.10,VWS V14.01,2013-05-11 13:33:00,
2013-05-11 08:38:00,63.8,63.2,30.05,ENE,75,0.0,0.0,98,0.12,,---,0.12,VWS V14.01,2013-05-11 13:38:00,
2013-05-11 08:43:00,63.8,63.2,30.05,ENE,75,0.0,0.0,98,0.15,,---,0.15,VWS V14.01,2013-05-11 13:43:00,
2013-05-11 08:48:00,63.8,63.2,30.04,ENE,75,0.0,0.0,98,0.19,,---,0.19,VWS V14.01,2013-05-11 13:48:00,
2013-05-11 08:53:00,63.8,63.2,30.04,ENE,75,0.0,0.0,98,0.21,,---,0.21,VWS V14.01,2013-05-11 13:53:00,
2013-05-11 08:58:00,63.8,63.2,30.03,ENE,75,0.0,0.0,98,0.24,,---,0.24,VWS V14.01,2013-05-11 13:58:00,
2013-05-11 09:00:00,63.9,63.3,30.03,ENE,75,0.0,0.0,98,0.24,,---,0.24,VWS V14.01,2013-05-11 14:00:00,
2013-05-11 09:03:00,63.9,63.3,30.02,ENE,75,0.0,0.0,98,0.24,,---,0.26,VWS V14.01,2013-05-11 14:03:00,
2013-05-11 09:08:00,63.9,63.3,30.02,NNE,18,0.0,1.0,98,0.25,,---,0.27,VWS V14.01,2013-05-11 14:08:00,
2013-05-11 09:13:00,64.0,63.4,30.01,NNE,19,0.0,1.0,98,0.26,,---,0.28,VWS V14.01,2013-05-11 14:13:00,
2013-05-11 09:18:00,64.0,63.4,30.00,SE,131,0.0,1.0,98,0.26,,---,0.28,VWS V14.01,2013-05-11 14:18:00,
2013-05-11 09:23:00,63.9,63.3,29.99,ENE,68,1.0,2.0,98,0.26,,---,0.28,VWS V14.01,2013-05-11 14:23:00,
2013-05-11 09:28:00,63.9,63.3,29.98,SSE,148,0.0,3.0,98,0.27,,---,0.29,VWS V14.01,2013-05-11 14:28:00,
2013-05-11 09:30:00,63.9,63.3,29.98,East,89,1.0,3.0,98,0.27,,---,0.29,VWS V14.01,2013-05-11 14:30:00,
2013-05-11 09:33:00,63.9,63.3,29.97,ENE,78,0.0,3.0,98,0.20,,---,0.29,VWS V14.01,2013-05-11 14:33:00,
2013-05-11 09:38:00,63.9,63.3,29.97,SE,133,1.0,3.0,98,0.20,,---,0.29,VWS V14.01,2013-05-11 14:38:00,
2013-05-11 09:43:00,64.0,63.4,29.97,ESE,112,0.0,3.0,98,0.21,,---,0.30,VWS V14.01,2013-05-11 14:43:00,
2013-05-11 09:48:00,64.1,63.5,29.96,SE,145,3.0,6.0,98,0.21,,---,0.30,VWS V14.01,2013-05-11 14:48:00,
2013-05-11 09:53:00,64.2,63.6,29.95,East,101,2.0,7.0,98,0.22,,---,0.31,VWS V14.01,2013-05-11 14:53:00,
2013-05-11 09:58:00,64.4,63.8,29.96,ESE,106,0.0,7.0,98,0.22,,---,0.31,VWS V14.01,2013-05-11 14:58:00,
2013-05-11 10:00:00,64.5,63.9,29.96,ESE,106,0.0,7.0,98,0.22,,---,0.31,VWS V14.01,2013-05-11 15:00:00,
2013-05-11 10:03:00,64.8,64.2,29.96,SE,136,0.0,2.0,98,0.07,,---,0.31,VWS V14.01,2013-05-11 15:03:00,
2013-05-11 10:08:00,65.2,64.6,29.97,SE,136,0.0,2.0,98,0.07,,---,0.31,VWS V14.01,2013-05-11 15:08:00,
2013-05-11 10:13:00,65.6,65.0,29.99,NNW,336,0.0,2.0,98,0.07,,---,0.31,VWS V14.01,2013-05-11 15:13:00,
2013-05-11 10:18:00,66.0,65.4,29.99,WNW,300,0.0,2.0,98,0.07,,---,0.31,VWS V14.01,2013-05-11 15:18:00,
2013-05-11 10:23:00,66.2,65.6,30.00,NW,319,1.0,2.0,98,0.07,,---,0.31,VWS V14.01,2013-05-11 15:23:00,
2013-05-11 10:28:00,66.4,65.8,30.01,WNW,298,0.0,3.0,98,0.07,,---,0.31,VWS V14.01,2013-05-11 15:28:00,
2013-05-11 10:30:00,66.4,65.8,30.01,SE,145,1.0,3.0,98,0.07,,---,0.31,VWS V14.01,2013-05-11 15:30:00,
2013-05-11 10:33:00,66.5,65.9,30.01,WSW,249,1.0,2.0,98,0.02,,---,0.31,VWS V14.01,2013-05-11 15:33:00,
2013-05-11 10:38:00,66.9,66.3,30.00,SW,231,0.0,2.0,98,0.02,,---,0.31,VWS V14.01,2013-05-11 15:38:00,
2013-05-11 10:43:00,67.2,66.6,30.00,SW,233,0.0,2.0,98,0.02,,---,0.31,VWS V14.01,2013-05-11 15:43:00,
2013-05-11 10:48:00,67.6,67.0,30.00,SW,232,0.0,2.0,98,0.02,,---,0.31,VWS V14.01,2013-05-11 15:48:00,
2013-05-11 10:53:00,67.8,66.9,30.00,SW,229,0.0,2.0,97,0.02,,---,0.31,VWS V14.01,2013-05-11 15:53:00,
2013-05-11 10:58:00,67.9,66.7,30.01,SW,228,0.0,2.0,96,0.02,,---,0.31,VWS V14.01,2013-05-11 15:58:00,
2013-05-11 11:00:00,68.0,66.8,30.01,SW,228,0.0,2.0,96,0.02,,---,0.31,VWS V14.01,2013-05-11 16:00:00,
2013-05-11 11:03:00,68.4,67.2,30.01,SW,228,0.0,0.0,96,0.00,,---,0.31,VWS V14.01,2013-05-11 16:03:00,
2013-05-11 11:08:00,68.7,67.2,30.01,SW,228,0.0,0.0,95,0.00,,---,0.31,VWS V14.01,2013-05-11 16:08:00,
2013-05-11 11:13:00,69.4,68.2,30.01,SW,228,0.0,0.0,96,0.00,,---,0.31,VWS V14.01,2013-05-11 16:13:00,
2013-05-11 11:18:00,70.3,68.8,30.01,ESE,115,0.0,1.0,95,0.00,,---,0.31,VWS V14.01,2013-05-11 16:18:00,
2013-05-11 11:23:00,71.0,68.9,30.01,WSW,255,0.0,5.0,93,0.00,,---,0.31,VWS V14.01,2013-05-11 16:23:00,
2013-05-11 11:28:00,71.3,68.5,30.02,North,8,0.0,5.0,91,0.00,,---,0.31,VWS V14.01,2013-05-11 16:28:00,
2013-05-11 11:30:00,71.4,68.3,30.02,North,8,0.0,5.0,90,0.00,,---,0.31,VWS V14.01,2013-05-11 16:30:00,
2013-05-11 11:33:00,71.5,68.1,30.02,North,8,0.0,1.0,89,0.00,,---,0.31,VWS V14.01,2013-05-11 16:33:00,
2013-05-11 11:38:00,72.1,69.0,30.03,ESE,119,0.0,1.0,90,0.00,,---,0.31,VWS V14.01,2013-05-11 16:38:00,
2013-05-11 11:43:00,72.6,68.5,30.02,WNW,297,0.0,1.0,87,0.00,,---,0.31,VWS V14.01,2013-05-11 16:43:00,
2013-05-11 11:48:00,73.1,69.0,30.02,SE,135,1.0,1.0,87,0.00,,---,0.31,VWS V14.01,2013-05-11 16:48:00,
2013-05-11 11:53:00,73.4,69.3,30.02,SE,132,0.0,1.0,87,0.00,,---,0.31,VWS V14.01,2013-05-11 16:53:00,
2013-05-11 11:58:00,73.7,69.3,30.02,SE,135,0.0,1.0,86,0.00,,---,0.31,VWS V14.01,2013-05-11 16:58:00,
2013-05-11 12:00:00,73.7,69.3,30.02,SE,126,2.0,3.0,86,0.00,,---,0.31,VWS V14.01,2013-05-11 17:00:00,
2013-05-11 12:03:00,73.6,67.8,30.02,ESE,105,0.0,2.0,82,0.00,,---,0.31,VWS V14.01,2013-05-11 17:03:00,
2013-05-11 12:08:00,74.0,68.5,30.02,East,92,1.0,4.0,83,0.00,,---,0.31,VWS V14.01,2013-05-11 17:08:00,
2013-05-11 12:13:00,73.9,67.3,30.01,NE,47,0.0,4.0,80,0.00,,---,0.31,VWS V14.01,2013-05-11 17:13:00,
2013-05-11 12:18:00,74.0,68.2,30.01,WNW,283,0.0,4.0,82,0.00,,---,0.31,VWS V14.01,2013-05-11 17:18:00,
2013-05-11 12:23:00,75.0,69.8,30.01,WSW,246,0.0,4.0,84,0.00,,---,0.31,VWS V14.01,2013-05-11 17:23:00,
2013-05-11 12:28:00,76.2,70.7,30.01,WNW,293,0.0,4.0,83,0.00,,---,0.31,VWS V14.01,2013-05-11 17:28:00,
2013-05-11 12:30:00,76.4,70.5,30.01,West,267,1.0,4.0,82,0.00,,---,0.31,VWS V14.01,2013-05-11 17:30:00,
2013-05-11 12:33:00,76.8,69.4,30.01,WSW,245,0.0,1.0,78,0.00,,---,0.31,VWS V14.01,2013-05-11 17:33:00,
2013-05-11 12:38:00,77.0,68.9,30.01,SSW,194,0.0,2.0,76,0.00,,---,0.31,VWS V14.01,2013-05-11 17:38:00,
2013-05-11 12:43:00,76.4,68.7,30.02,NNE,19,0.0,4.0,77,0.00,,---,0.31,VWS V14.01,2013-05-11 17:43:00,
2013-05-11 12:48:00,76.4,69.0,30.02,North,8,0.0,4.0,78,0.00,,---,0.31,VWS V14.01,2013-05-11 17:48:00,
2013-05-11 12:53:00,76.6,69.2,30.02,WSW,252,0.0,4.0,78,0.00,,---,0.31,VWS V14.01,2013-05-11 17:53:00,
2013-05-11 12:58:00,76.9,69.5,30.02,WSW,252,0.0,4.0,78,0.00,,---,0.31,VWS V14.01,2013-05-11 17:58:00,
2013-05-11 13:00:00,77.0,69.6,30.02,WSW,251,0.0,4.0,78,0.00,,---,0.31,VWS V14.01,2013-05-11 18:00:00,
2013-05-11 13:03:00,77.0,68.9,30.02,WSW,252,0.0,0.0,76,0.00,,---,0.31,VWS V14.01,2013-05-11 18:03:00,
2013-05-11 13:08:00,77.0,69.2,30.02,SSW,203,0.0,0.0,77,0.00,,---,0.31,VWS V14.01,2013-05-11 18:08:00,
2013-05-11 13:13:00,76.9,69.2,30.02,WNW,300,0.0,1.0,77,0.00,,---,0.31,VWS V14.01,2013-05-11 18:13:00,
2013-05-11 13:18:00,76.7,68.2,30.02,NE,41,0.0,1.0,75,0.00,,---,0.31,VWS V14.01,2013-05-11 18:18:00,
2013-05-11 13:23:00,76.8,69.1,30.01,NE,40,0.0,1.0,77,0.00,,---,0.31,VWS V14.01,2013-05-11 18:23:00,
2013-05-11 13:28:00,76.9,69.2,30.01,NE,40,0.0,1.0,77,0.00,,---,0.31,VWS V14.01,2013-05-11 18:28:00,
2013-05-11 13:30:00,77.0,68.9,30.01,East,83,0.0,1.0,76,0.00,,---,0.31,VWS V14.01,2013-05-11 18:30:00,
2013-05-11 13:33:00,77.2,69.4,30.01,East,96,0.0,0.0,77,0.00,,---,0.31,VWS V14.01,2013-05-11 18:33:00,
2013-05-11 13:38:00,77.4,68.9,30.01,NE,34,0.0,1.0,75,0.00,,---,0.31,VWS V14.01,2013-05-11 18:38:00,
2013-05-11 13:43:00,77.4,68.9,30.01,NW,312,2.0,2.0,75,0.00,,---,0.31,VWS V14.01,2013-05-11 18:43:00,
2013-05-11 13:48:00,77.1,69.0,30.01,ENE,65,0.0,2.0,76,0.00,,---,0.31,VWS V14.01,2013-05-11 18:48:00,
2013-05-11 13:53:00,77.0,68.5,30.00,West,269,0.0,3.0,75,0.00,,---,0.31,VWS V14.01,2013-05-11 18:53:00,
2013-05-11 13:58:00,76.9,68.4,30.00,NNW,328,0.0,3.0,75,0.00,,---,0.31,VWS V14.01,2013-05-11 18:58:00,
2013-05-11 14:00:00,76.9,68.8,30.00,NE,44,0.0,3.0,76,0.00,,---,0.31,VWS V14.01,2013-05-11 19:00:00,
2013-05-11 14:03:00,76.9,68.4,30.00,NW,307,0.0,1.0,75,0.00,,---,0.31,VWS V14.01,2013-05-11 19:03:00,
2013-05-11 14:08:00,76.9,69.2,30.00,West,260,0.0,2.0,77,0.00,,---,0.31,VWS V14.01,2013-05-11 19:08:00,
2013-05-11 14:13:00,77.2,68.3,30.00,NNE,33,2.0,2.0,74,0.00,,---,0.31,VWS V14.01,2013-05-11 19:13:00,
2013-05-11 14:18:00,77.2,67.9,30.00,NNW,346,1.0,4.0,73,0.00,,---,0.31,VWS V14.01,2013-05-11 19:18:00,
2013-05-11 14:23:00,77.2,68.3,30.00,NNE,16,0.0,4.0,74,0.00,,---,0.31,VWS V14.01,2013-05-11 19:23:00,
2013-05-11 14:28:00,77.1,68.2,30.00,WSW,252,0.0,4.0,74,0.00,,---,0.31,VWS V14.01,2013-05-11 19:28:00,
2013-05-11 14:30:00,77.1,68.2,30.00,NNE,18,0.0,4.0,74,0.00,,---,0.31,VWS V14.01,2013-05-11 19:30:00,
2013-05-11 14:33:00,77.0,68.5,30.00,NNW,340,0.0,2.0,75,0.00,,---,0.31,VWS V14.01,2013-05-11 19:33:00,
2013-05-11 14:38:00,76.9,68.4,29.99,NNW,328,0.0,2.0,75,0.00,,---,0.31,VWS V14.01,2013-05-11 19:38:00,
2013-05-11 14:43:00,76.4,68.3,29.99,North,354,0.0,2.0,76,0.00,,---,0.31,VWS V14.01,2013-05-11 19:43:00,
2013-05-11 14:48:00,76.1,69.1,29.99,North,354,0.0,2.0,79,0.00,,---,0.31,VWS V14.01,2013-05-11 19:48:00,
2013-05-11 14:53:00,75.8,69.2,29.99,North,354,0.0,2.0,80,0.00,,---,0.31,VWS V14.01,2013-05-11 19:53:00,
2013-05-11 14:58:00,75.5,69.6,29.98,North,354,0.0,2.0,82,0.00,,---,0.31,VWS V14.01,2013-05-11 19:58:00,
2013-05-11 15:00:00,75.5,69.3,29.98,North,354,0.0,2.0,81,0.00,,---,0.31,VWS V14.01,2013-05-11 20:00:00,
2013-05-11 15:03:00,75.2,69.3,29.98,North,354,0.0,0.0,82,0.00,,---,0.31,VWS V14.01,2013-05-11 20:03:00,
2013-05-11 15:08:00,74.9,69.0,29.98,South,190,0.0,1.0,82,0.00,,---,0.31,VWS V14.01,2013-05-11 20:08:00,
2013-05-11 15:13:00,75.1,69.2,29.97,SE,124,0.0,1.0,82,0.00,,---,0.31,VWS V14.01,2013-05-11 20:13:00,
2013-05-11 15:18:00,75.8,69.6,29.97,ESE,122,0.0,1.0,81,0.00,,---,0.31,VWS V14.01,2013-05-11 20:18:00,
2013-05-11 15:23:00,76.2,69.6,29.97,ENE,76,0.0,0.0,80,0.00,,---,0.31,VWS V14.01,2013-05-11 20:23:00,
2013-05-11 15:28:00,76.7,68.6,29.97,North,351,0.0,0.0,76,0.00,,---,0.31,VWS V14.01,2013-05-11 20:28:00,
2013-05-11 15:30:00,76.7,68.9,29.96,North,358,0.0,0.0,77,0.00,,---,0.31,VWS V14.01,2013-05-11 20:30:00,
2013-05-11 15:33:00,76.9,69.2,29.97,ESE,105,0.0,2.0,77,0.00,,---,0.31,VWS V14.01,2013-05-11 20:33:00,
2013-05-11 15:38:00,77.0,68.9,29.97,West,259,0.0,2.0,76,0.00,,---,0.31,VWS V14.01,2013-05-11 20:38:00,
2013-05-11 15:43:00,77.3,69.5,29.97,West,271,0.0,2.0,77,0.00,,---,0.31,VWS V14.01,2013-05-11 20:43:00,
2013-05-11 15:48:00,77.7,69.2,29.97,SSW,203,0.0,2.0,75,0.00,,---,0.31,VWS V14.01,2013-05-11 20:48:00,
2013-05-11 15:53:00,77.7,69.2,29.98,ESE,108,0.0,2.0,75,0.00,,---,0.31,VWS V14.01,2013-05-11 20:53:00,
2013-05-11 15:58:00,77.3,68.4,29.99,WNW,293,1.0,3.0,74,0.00,,---,0.31,VWS V14.01,2013-05-11 20:58:00,
2013-05-11 16:00:00,77.2,68.7,29.99,WNW,293,0.0,3.0,75,0.00,,---,0.31,VWS V14.01,2013-05-11 21:00:00,
2013-05-11 16:02:00,76.7,68.2,29.99,NNW,336,1.0,2.0,75,0.00,,---,0.31,VWS V14.01,2013-05-11 21:02:00,
2013-05-11 16:07:00,76.2,68.8,29.98,ENE,59,0.0,3.0,78,0.00,,---,0.31,VWS V14.01,2013-05-11 21:07:00,
2013-05-11 16:12:00,75.9,68.6,29.97,ENE,68,0.0,3.0,78,0.00,,---,0.31,VWS V14.01,2013-05-11 21:12:00,
2013-05-11 16:17:00,75.7,68.4,29.96,NW,304,0.0,3.0,78,0.00,,---,0.31,VWS V14.01,2013-05-11 21:17:00,
2013-05-11 16:23:00,75.7,68.7,29.95,SSE,148,1.0,3.0,79,0.00,,---,0.31,VWS V14.01,2013-05-11 21:23:00,
2013-05-11 16:27:00,75.7,68.7,29.94,ESE,122,0.0,3.0,79,0.00,,---,0.31,VWS V14.01,2013-05-11 21:27:00,
2013-05-11 16:30:00,75.6,68.6,29.94,ESE,118,0.0,3.0,79,0.00,,---,0.31,VWS V14.01,2013-05-11 21:30:00,
2013-05-11 16:32:00,75.5,68.5,29.94,ESE,119,0.0,1.0,79,0.00,,---,0.31,VWS V14.01,2013-05-11 21:32:00,
2013-05-11 16:37:00,75.4,68.8,29.94,SE,126,0.0,1.0,80,0.00,,---,0.31,VWS V14.01,2013-05-11 21:37:00,
2013-05-11 16:42:00,75.3,68.3,29.95,SE,139,0.0,1.0,79,0.00,,---,0.31,VWS V14.01,2013-05-11 21:42:00,
2013-05-11 16:47:00,75.3,68.7,29.95,SE,139,0.0,1.0,80,0.00,,---,0.31,VWS V14.01,2013-05-11 21:47:00,
2013-05-11 16:52:00,75.3,68.7,29.95,SE,138,0.0,1.0,80,0.00,,---,0.31,VWS V14.01,2013-05-11 21:52:00,
2013-05-11 16:57:00,75.3,69.1,29.95,SE,138,0.0,1.0,81,0.00,,---,0.31,VWS V14.01,2013-05-11 21:57:00,
2013-05-11 17:00:00,75.3,68.7,29.95,SE,139,0.0,1.0,80,0.00,,---,0.31,VWS V14.01,2013-05-11 22:00:00,
2013-05-11 17:02:00,75.4,68.8,29.95,SE,138,0.0,0.0,80,0.00,,---,0.31,VWS V14.01,2013-05-11 22:02:00,
2013-05-11 17:07:00,75.4,68.8,29.95,SE,138,0.0,0.0,80,0.00,,---,0.31,VWS V14.01,2013-05-11 22:07:00,
2013-05-11 17:12:00,75.4,68.4,29.95,WNW,293,0.0,1.0,79,0.00,,---,0.31,VWS V14.01,2013-05-11 22:12:00,
2013-05-11 17:17:00,75.3,68.7,29.96,WNW,293,0.0,1.0,80,0.00,,---,0.31,VWS V14.01,2013-05-11 22:17:00,
2013-05-11 17:22:00,75.1,68.5,29.94,WNW,293,0.0,1.0,80,0.00,,---,0.31,VWS V14.01,2013-05-11 22:22:00,
2013-05-11 17:27:00,74.8,68.2,29.95,WNW,293,0.0,1.0,80,0.00,,---,0.31,VWS V14.01,2013-05-11 22:27:00,
2013-05-11 17:30:00,74.8,68.6,29.95,WNW,293,0.0,1.0,81,0.00,,---,0.31,VWS V14.01,2013-05-11 22:30:00,
2013-05-11 17:32:00,74.8,68.6,29.95,WNW,293,0.0,0.0,81,0.00,,---,0.31,VWS V14.01,2013-05-11 22:32:00,
2013-05-11 17:37:00,74.8,68.2,29.95,WNW,294,0.0,0.0,80,0.00,,---,0.31,VWS V14.01,2013-05-11 22:37:00,
2013-05-11 17:42:00,74.7,68.1,29.95,WNW,294,0.0,0.0,80,0.00,,---,0.31,VWS V14.01,2013-05-11 22:42:00,
2013-05-11 17:47:00,74.6,68.0,29.95,WNW,293,0.0,1.0,80,0.00,,---,0.31,VWS V14.01,2013-05-11 22:47:00,
2013-05-11 17:52:00,74.4,67.8,29.94,WNW,293,0.0,1.0,80,0.00,,---,0.31,VWS V14.01,2013-05-11 22:52:00,
2013-05-11 17:57:00,74.3,68.1,29.94,East,96,2.0,2.0,81,0.00,,---,0.31,VWS V14.01,2013-05-11 22:57:00,
2013-05-11 18:00:00,74.1,68.3,29.94,East,99,1.0,2.0,82,0.00,,---,0.31,VWS V14.01,2013-05-11 23:00:00,
2013-05-11 18:02:00,73.6,68.5,29.95,East,101,0.0,1.0,84,0.00,,---,0.31,VWS V14.01,2013-05-11 23:02:00,
2013-05-11 18:07:00,73.2,68.4,29.95,East,98,0.0,1.0,85,0.00,,---,0.31,VWS V14.01,2013-05-11 23:07:00,
2013-05-11 18:12:00,73.0,68.2,29.96,East,101,0.0,1.0,85,0.00,,---,0.31,VWS V14.01,2013-05-11 23:12:00,
2013-05-11 18:17:00,72.9,68.5,29.96,East,94,0.0,1.0,86,0.00,,---,0.31,VWS V14.01,2013-05-11 23:17:00,
2013-05-11 18:22:00,72.7,68.3,29.96,East,96,0.0,1.0,86,0.00,,---,0.31,VWS V14.01,2013-05-11 23:22:00,
2013-05-11 18:27:00,72.6,68.2,29.95,SE,141,1.0,1.0,86,0.00,,---,0.31,VWS V14.01,2013-05-11 23:27:00,
2013-05-11 18:30:00,72.5,68.4,29.95,SE,142,0.0,2.0,87,0.00,,---,0.31,VWS V14.01,2013-05-11 23:30:00,
2013-05-11 18:32:00,72.4,68.3,29.95,SE,131,0.0,2.0,87,0.00,,---,0.31,VWS V14.01,2013-05-11 23:32:00,
2013-05-11 18:37:00,72.4,68.7,29.96,SE,131,0.0,2.0,88,0.00,,---,0.31,VWS V14.01,2013-05-11 23:37:00,
2013-05-11 18:42:00,72.6,68.5,29.97,SE,132,0.0,2.0,87,0.00,,---,0.31,VWS V14.01,2013-05-11 23:42:00,
2013-05-11 18:47:00,72.6,68.5,29.97,SE,131,0.0,2.0,87,0.00,,---,0.31,VWS V14.01,2013-05-11 23:47:00,
2013-05-11 18:52:00,72.5,68.8,29.97,SE,134,0.0,2.0,88,0.00,,---,0.31,VWS V14.01,2013-05-11 23:52:00,
2013-05-11 18:57:00,72.5,68.8,29.97,SE,134,0.0,2.0,88,0.00,,---,0.31,VWS V14.01,2013-05-11 23:57:00,
2013-05-11 19:00:00,72.5,68.4,29.97,SE,134,0.0,2.0,87,0.00,,---,0.31,VWS V14.01,2013-05-12 00:00:00,
2013-05-11 19:02:00,72.5,68.4,29.97,SE,134,0.0,0.0,87,0.00,,---,0.31,VWS V14.01,2013-05-12 00:02:00,
2013-05-11 19:07:00,72.4,68.0,29.98,SE,134,0.0,0.0,86,0.00,,---,0.31,VWS V14.01,2013-05-12 00:07:00,
2013-05-11 19:12:00,72.3,67.9,29.98,SE,134,0.0,0.0,86,0.00,,---,0.31,VWS V14.01,2013-05-12 00:12:00,
2013-05-11 19:17:00,72.2,67.8,29.98,SE,134,0.0,0.0,86,0.00,,---,0.31,VWS V14.01,2013-05-12 00:17:00,
2013-05-11 19:22:00,72.0,67.6,29.97,SE,134,0.0,0.0,86,0.00,,---,0.31,VWS V14.01,2013-05-12 00:22:00,
2013-05-11 19:27:00,71.8,67.4,29.97,SE,134,0.0,0.0,86,0.00,,---,0.31,VWS V14.01,2013-05-12 00:27:00,
2013-05-11 19:30:00,71.8,67.4,29.97,SE,134,0.0,0.0,86,0.00,,---,0.31,VWS V14.01,2013-05-12 00:30:00,
2013-05-11 19:32:00,71.6,67.2,29.98,SE,134,0.0,0.0,86,0.00,,---,0.31,VWS V14.01,2013-05-12 00:32:00,
2013-05-11 19:37:00,71.3,67.2,29.98,SE,134,0.0,0.0,87,0.00,,---,0.31,VWS V14.01,2013-05-12 00:37:00,
2013-05-11 19:42:00,71.1,67.0,29.98,SE,134,0.0,0.0,87,0.00,,---,0.31,VWS V14.01,2013-05-12 00:42:00,
2013-05-11 19:47:00,70.7,67.0,29.98,SE,134,0.0,0.0,88,0.00,,---,0.31,VWS V14.01,2013-05-12 00:47:00,
2013-05-11 19:52:00,70.4,67.0,29.98,SE,134,0.0,0.0,89,0.00,,---,0.31,VWS V14.01,2013-05-12 00:52:00,
2013-05-11 19:57:00,70.1,67.0,29.99,SE,134,0.0,0.0,90,0.00,,---,0.31,VWS V14.01,2013-05-12 00:57:00,
2013-05-11 20:00:00,70.0,66.9,29.99,SE,134,0.0,0.0,90,0.00,,---,0.31,VWS V14.01,2013-05-12 01:00:00,
2013-05-11 20:02:00,69.7,66.6,29.99,SE,134,0.0,0.0,90,0.00,,---,0.31,VWS V14.01,2013-05-12 01:02:00,
2013-05-11 20:07:00,69.4,66.7,29.98,SE,134,0.0,0.0,91,0.00,,---,0.31,VWS V14.01,2013-05-12 01:07:00,
2013-05-11 20:12:00,69.1,66.4,29.99,SE,134,0.0,0.0,91,0.00,,---,0.31,VWS V14.01,2013-05-12 01:12:00,
2013-05-11 20:17:00,68.7,66.3,29.99,SE,134,0.0,0.0,92,0.00,,---,0.31,VWS V14.01,2013-05-12 01:17:00,
2013-05-11 20:22:00,68.5,66.1,29.99,SE,134,0.0,0.0,92,0.00,,---,0.31,VWS V14.01,2013-05-12 01:22:00,
2013-05-11 20:27:00,68.2,66.1,29.99,SE,134,0.0,0.0,93,0.00,,---,0.31,VWS V14.01,2013-05-12 01:27:00,
2013-05-11 20:30:00,68.1,66.0,29.99,SE,134,0.0,0.0,93,0.00,,---,0.31,VWS V14.01,2013-05-12 01:30:00,
2013-05-11 20:32:00,68.0,65.9,30.00,SE,134,0.0,0.0,93,0.00,,---,0.31,VWS V14.01,2013-05-12 01:32:00,
2013-05-11 20:37:00,67.8,66.0,29.99,SE,134,0.0,0.0,94,0.00,,---,0.31,VWS V14.01,2013-05-12 01:37:00,
2013-05-11 20:42:00,67.6,65.8,30.00,SE,134,0.0,0.0,94,0.00,,---,0.31,VWS V14.01,2013-05-12 01:42:00,
2013-05-11 20:47:00,67.5,65.7,30.00,SE,134,0.0,0.0,94,0.00,,---,0.31,VWS V14.01,2013-05-12 01:47:00,
2013-05-11 20:52:00,67.3,65.5,30.00,SE,134,0.0,0.0,94,0.00,,---,0.31,VWS V14.01,2013-05-12 01:52:00,
2013-05-11 20:57:00,67.2,65.7,30.00,SE,134,0.0,0.0,95,0.00,,---,0.31,VWS V14.01,2013-05-12 01:57:00,
2013-05-11 21:00:00,67.2,65.7,30.00,SE,134,0.0,0.0,95,0.00,,---,0.31,VWS V14.01,2013-05-12 02:00:00,
2013-05-11 21:02:00,67.0,65.5,30.00,SE,134,0.0,0.0,95,0.00,,---,0.31,VWS V14.01,2013-05-12 02:02:00,
2013-05-11 21:07:00,66.9,65.4,30.00,SE,134,0.0,0.0,95,0.00,,---,0.31,VWS V14.01,2013-05-12 02:07:00,
2013-05-11 21:12:00,66.8,65.3,30.00,SE,134,0.0,0.0,95,0.00,,---,0.31,VWS V14.01,2013-05-12 02:12:00,
2013-05-11 21:17:00,66.7,65.2,30.00,SE,134,0.0,0.0,95,0.00,,---,0.31,VWS V14.01,2013-05-12 02:17:00,
2013-05-11 21:22:00,66.6,65.4,30.00,SE,134,0.0,0.0,96,0.00,,---,0.31,VWS V14.01,2013-05-12 02:22:00,
2013-05-11 21:27:00,66.5,65.3,30.01,SE,134,0.0,0.0,96,0.00,,---,0.31,VWS V14.01,2013-05-12 02:27:00,
2013-05-11 21:30:00,66.4,65.2,30.01,SE,134,0.0,0.0,96,0.00,,---,0.31,VWS V14.01,2013-05-12 02:30:00,
2013-05-11 21:32:00,66.3,65.1,30.01,SE,134,0.0,0.0,96,0.00,,---,0.31,VWS V14.01,2013-05-12 02:32:00,
2013-05-11 21:37:00,66.3,65.1,30.01,SE,134,0.0,0.0,96,0.00,,---,0.31,VWS V14.01,2013-05-12 02:37:00,
2013-05-11 21:42:00,66.2,65.0,30.01,SE,134,0.0,0.0,96,0.00,,---,0.31,VWS V14.01,2013-05-12 02:42:00,
2013-05-11 21:47:00,66.2,65.0,30.01,SE,134,0.0,0.0,96,0.00,,---,0.31,VWS V14.01,2013-05-12 02:47:00,
2013-05-11 21:52:00,66.1,64.9,30.01,SE,134,0.0,0.0,96,0.00,,---,0.31,VWS V14.01,2013-05-12 02:52:00,
2013-05-11 21:57:00,65.9,64.7,30.01,SE,134,0.0,0.0,96,0.00,,---,0.31,VWS V14.01,2013-05-12 02:57:00,
2013-05-11 22:00:00,65.9,64.7,30.01,SE,134,0.0,0.0,96,0.00,,---,0.31,VWS V14.01,2013-05-12 03:00:00,
2013-05-11 22:02:00,65.8,64.6,30.01,SE,134,0.0,0.0,96,0.00,,---,0.31,VWS V14.01,2013-05-12 03:02:00,
2013-05-11 22:07:00,65.7,64.5,30.01,SE,134,0.0,0.0,96,0.00,,---,0.31,VWS V14.01,2013-05-12 03:07:00,
2013-05-11 22:12:00,65.6,64.4,30.01,SE,134,0.0,0.0,96,0.00,,---,0.31,VWS V14.01,2013-05-12 03:12:00,
2013-05-11 22:17:00,65.4,64.2,30.01,SE,134,0.0,0.0,96,0.00,,---,0.31,VWS V14.01,2013-05-12 03:17:00,
2013-05-11 22:22:00,65.2,64.0,30.01,SE,134,0.0,0.0,96,0.00,,---,0.31,VWS V14.01,2013-05-12 03:22:00,
2013-05-11 22:27:00,65.1,63.9,30.01,SE,134,0.0,0.0,96,0.00,,---,0.31,VWS V14.01,2013-05-12 03:27:00,
2013-05-11 22:30:00,65.0,64.1,30.01,SE,134,0.0,0.0,97,0.00,,---,0.31,VWS V14.01,2013-05-12 03:30:00,
2013-05-11 22:32:00,65.0,64.1,30.01,SE,134,0.0,0.0,97,0.00,,---,0.31,VWS V14.01,2013-05-12 03:32:00,
2013-05-11 22:37:00,64.9,64.0,30.01,SE,134,0.0,0.0,97,0.00,,---,0.31,VWS V14.01,2013-05-12 03:37:00,
2013-05-11 22:42:00,64.8,63.9,30.01,SE,134,0.0,0.0,97,0.00,,---,0.31,VWS V14.01,2013-05-12 03:42:00,
2013-05-11 22:47:00,64.7,63.8,30.01,SE,134,0.0,0.0,97,0.00,,---,0.31,VWS V14.01,2013-05-12 03:47:00,
2013-05-11 22:52:00,64.6,63.7,30.01,SE,134,0.0,0.0,97,0.00,,---,0.31,VWS V14.01,2013-05-12 03:52:00,
2013-05-11 22:57:00,64.4,63.5,30.01,SE,134,0.0,0.0,97,0.00,,---,0.31,VWS V14.01,2013-05-12 03:57:00,
2013-05-11 23:00:00,64.3,63.4,30.02,SE,134,0.0,0.0,97,0.00,,---,0.31,VWS V14.01,2013-05-12 04:00:00,
2013-05-11 23:01:00,64.3,63.4,30.01,SE,134,0.0,0.0,97,0.00,,---,0.31,VWS V14.01,2013-05-12 04:01:00,
2013-05-11 23:06:00,64.2,63.3,30.01,SE,134,0.0,0.0,97,0.00,,---,0.31,VWS V14.01,2013-05-12 04:06:00,
2013-05-11 23:11:00,64.0,63.1,30.02,SE,134,0.0,0.0,97,0.00,,---,0.31,VWS V14.01,2013-05-12 04:11:00,
2013-05-11 23:16:00,63.9,63.0,30.02,SE,134,0.0,0.0,97,0.00,,---,0.31,VWS V14.01,2013-05-12 04:16:00,
2013-05-11 23:21:00,63.9,63.0,30.02,SE,134,0.0,0.0,97,0.00,,---,0.31,VWS V14.01,2013-05-12 04:21:00,
2013-05-11 23:26:00,64.1,63.2,30.02,SE,134,0.0,0.0,97,0.00,,---,0.31,VWS V14.01,2013-05-12 04:26:00,
2013-05-11 23:30:00,64.1,63.2,30.01,SE,134,0.0,0.0,97,0.00,,---,0.31,VWS V14.01,2013-05-12 04:30:00,
2013-05-11 23:31:00,64.2,63.3,30.01,SE,134,0.0,0.0,97,0.00,,---,0.31,VWS V14.01,2013-05-12 04:31:00,
2013-05-11 23:36:00,64.4,63.8,30.01,SE,134,0.0,0.0,98,0.00,,---,0.31,VWS V14.01,2013-05-12 04:36:00,
2013-05-11 23:41:00,64.5,63.9,30.01,SE,134,0.0,0.0,98,0.00,,---,0.31,VWS V14.01,2013-05-12 04:41:00,
2013-05-11 23:46:00,64.5,63.9,30.01,SE,134,0.0,0.0,98,0.00,,---,0.31,VWS V14.01,2013-05-12 04:46:00,
2013-05-11 23:51:00,64.6,64.0,30.01,SE,134,0.0,0.0,98,0.00,,---,0.31,VWS V14.01,2013-05-12 04:51:00,
2013-05-11 23:56:00,64.8,64.2,30.00,ENE,70,0.0,1.0,98,0.00,,---,0.31,VWS V14.01,2013-05-12 04:56:00,